STARLINK-11552, 62907

Orbit data source: Space-Track

STARLINK-11552, 62907 is a payload satellite owned by SpaceX/Seattle (US) in LEO that was launched on Sat, 08 Feb 2025 UTC via an FALCON 9 launch vehicle from the Air Force Eastern Test Range (AFETR). Payload-class satellites include a variety of spacecraft equipped with specific instruments for various scientific and technological missions. These include communications satellites like Starlink; space stations such as the ISS; scientific satellites like the Hubble; Earth observation satellites from companies like Planet Labs, Umbra, and HawkEye 360; GPS; miniature CubeSats for education and research; and military/defense satellites.

Loading next visibility...
Identifier
62907, 2025-027A
Orbit
LEO
Last TLE update
19 hours ago
Origin
Manufacturer
SpaceX/Seattle
Mission
Operational Commercial Communications
Bus & Motor
STARLINK V2M, Unknown motor
Mass
730 kg wet, ~700 kg dry
Launch date (UTC)
2025-02-08 (3 months ago)
Launch vehicle
FALCON 9
Launch site
Air Force Eastern Test Range (AFETR)
Object type
Payload
Rocket body
Debris
Shape & HBR
Box + 2 Pan, 29 m
Radar Cross Section
36.964 m², Large (>1 m²)

Expand to show TLE details & history

TLE from 19 hours ago
0 STARLINK-11552
1 62907U 25027A   25128.44449492  .00000573  00000-0  79578-5 0  9994
2 62907  43.0022  27.7067 0001198 263.9855  96.0877 15.70829830 15188
Epoch: 2025-05-08T10:40Z
Definitive object data (Epoch: 2025-05-08T10:40:04.361Z)
Latitude
0.00006°
Longitude
1.17369°
Altitude
356.381 km
Speed
7.697 km/s
True Right ascension
01h 50m 49s
True Declination
0° 00' 00"
Sunlit
Object was in daylight at TLE epoch
Visualization TLE readout
Latitude
-14.50819°
Longitude
-167.62519°
Altitude
358.982 km
Speed
7.695 km/s
Apparent Right ascension
16h 15m 27s
Apparent Declination
-72° 03' 01"
Sunlit
Object is in full shadow
Visualization observer readout
Local Sidereal Time
13:58:42
Azimuth
169.029° S
Elevation
-24.513°
Doppler factor
1
Orbital elements
Apogee altitude
359.312 km
Perigee altitude
357.698 km
Semi-major axis
6,736.642 km
Eccentricity
0.0001198
Inclination
43.0022°
RAAN
27.7067°
Arg. of periapsis
263.9855°
True anomaly
96.10135°
Mean anomaly
96.0877°
Eccentric anomaly
96.09453°
Mean motion
3.92535 °/min
BSTAR
0.0000079578
Orbital period
91.71 mins
Loading maneuver chart data...
Loading SW <> Apogee altitude chart data...
Loading historical data...
Loading historical data...
Loading historical data...
Loading historical data...
Loading historical data...
Loading historical data...
Loading historical data...

STARLINK-11552 Visibility forecast

Observer location: undefined°, undefined°

Span
Click to sort rows by Start time (UTC) header in descending order
Start Az.
Max El. time (UTC)
Max El. Az.
Max El.
End time (UTC)
End Az.
4 mins2025-05-09 20:27:58.812Z217.495° SW2025-05-09 20:29:58.812Z150.072° SSE32.543°2025-05-09 20:31:58.812Z87.955° E
4 mins2025-05-09 23:40:58.812Z304.668° NW2025-05-09 23:41:58.812Z340.14° N34.945°2025-05-09 23:44:58.812Z82.575° E
4 mins2025-05-10 01:16:58.812Z273.049° WNW2025-05-10 01:18:58.812Z163.911° S35.894°2025-05-10 01:20:58.812Z127.239° SE
|